"TOA5","AWS1","CR1000","7964","CR1000.Std.14","CPU:AWS1_114.CR1","64363","TBL110"
"TIMESTAMP","RECORD","Wind_spd_WVc(1)","Wind_spd_WVc(2)","Air_Temp_Avg","Humidity_Avg","SW_upper_Wm2_Avg","Rain_Tot","Press_Avg","Issui_Tot","Depth_cm","SR50A_Raw","Quality","Ground_Temp_Avg(1)","Ground_Temp_Avg(2)","SW_lower_Wm2_Avg","Albedo_Avg","SWC_per(1)","SWC_per(2)","Period(1)","Period(2)"
"TS","RN","","","","","","","","","","","","","","","","","","",""
"","","WVc","WVc","Avg","Avg","Avg","Tot","Avg","Tot","Smp","Smp","Smp","Avg","Avg","Avg","Avg","Smp","Smp","Smp","Smp"
"2018-05-17 00:00:00",340909,0.652,124.3,16.45,44.6,0,0,865.6458,0,0.239,3.085,240,14.39,12.54,0.007579082,0,50.11,57.86,33.33,35.18
"2018-05-17 00:10:00",340910,0.602,140.5,16.75,41.98,0,0,865.6605,0,-0.087,3.087,242,14.35,12.54,0.1174758,0,50.11,57.86,33.33,35.18
"2018-05-17 00:20:00",340911,0.829,143,16.84,43.5,0,0,865.6121,0,0.215,3.085,219,14.32,12.53,0.2917947,0,50.11,57.86,33.33,35.18
"2018-05-17 00:30:00",340912,0.621,148.4,16.83,44.98,0,0,865.6374,0,0.524,3.082,232,14.32,12.52,0.4357972,0,50.06,57.86,33.31,35.18
"2018-05-17 00:40:00",340913,0.943,140.6,16.46,49.8,0,0,865.5405,0,-0.062,3.09,220,14.29,12.52,0.4547449,0,50.11,57.86,33.33,35.18
"2018-05-17 00:50:00",340914,0.718,150.5,16.16,56.07,0,0,865.3994,0,0.207,3.086,253,14.24,12.52,0.9398062,0,50.11,57.86,33.33,35.18
"2018-05-17 01:00:00",340915,0.825,154.5,15.91,62.18,0,0,865.2288,0,0.828,3.086,268,14.22,12.53,1.212653,0,50.11,57.86,33.33,35.18
"2018-05-17 01:10:00",340916,0.614,134.9,15.22,69.72,0,0,865.1318,0,0.504,3.091,230,14.23,12.54,0.8602258,0,50.11,57.86,33.33,35.18
"2018-05-17 01:20:00",340917,0.809,142.1,15.53,68.25,0,0,864.9697,0,0.273,3.09,226,14.15,12.54,1.663608,0,50.11,57.8,33.33,35.17
"2018-05-17 01:30:00",340918,0.691,141.4,15.92,65.71,0.180793,0,864.8791,0,1.015,3.08,268,14.16,12.53,1.724241,2.499,50.11,57.8,33.33,35.17
"2018-05-17 01:40:00",340919,0.78,101.9,15.99,65.56,0.1139782,0,864.8791,0,1.364,3.078,259,14.15,12.52,1.000439,1.422,50.06,57.8,33.31,35.17
"2018-05-17 01:50:00",340920,0.687,129,16.01,63.96,0,0,864.8201,0,1.277,3.077,232,14.15,12.54,0.9852807,0,50.11,57.8,33.33,35.17
"2018-05-17 02:00:00",340921,0.602,79.26,16.2,63.25,0.003930284,0,864.8096,0,0.857,3.082,210,14.08,12.54,0.9435957,0.096,50.11,57.8,33.33,35.17
"2018-05-17 02:10:00",340922,0.742,111.1,16.12,63.53,0,0,864.5842,0,1.047,3.079,241,14.06,12.55,0.7541187,0,50.06,57.8,33.31,35.17
"2018-05-17 02:20:00",340923,0.822,134.7,16.21,63.38,0,0,864.6221,0,0.912,3.081,229,14.1,12.58,0.5646416,0,50.11,57.8,33.33,35.17
"2018-05-17 02:30:00",340924,0.596,146.2,16.09,64.72,0,0,864.7296,0,0.905,3.082,236,14.07,12.58,0.2576888,0,50.11,57.74,33.33,35.16
"2018-05-17 02:40:00",340925,0.578,147.6,16.08,65,0,0,864.6263,0,1.839,3.072,319,14.03,12.58,0.4585344,0,50.06,57.74,33.31,35.16
"2018-05-17 02:50:00",340926,0.88,132.1,16.18,64.87,0,0,864.6158,0,0.754,3.083,243,13.98,12.57,0.3600064,0,50.06,57.74,33.31,35.16
"2018-05-17 03:00:00",340927,0.606,142.5,16.15,64.32,0,0,864.6011,0,0.398,3.086,221,13.97,12.58,0.1174758,0,50.06,57.74,33.31,35.16
"2018-05-17 03:10:00",340928,0.98,140.8,16.31,61.93,0,0,864.5,0,0.302,3.086,249,13.99,12.56,0.1477921,0,50.11,57.74,33.33,35.16
"2018-05-17 03:20:00",340929,0.947,141.1,16.36,61.46,0,0,864.3947,0,0.897,3.08,259,13.94,12.56,0,0,50.11,57.74,33.33,35.16
"2018-05-17 03:30:00",340930,0.917,161.8,16.37,60.54,0,0,864.3884,0,0.975,3.079,257,13.92,12.56,0,0,50.11,57.74,33.33,35.16
"2018-05-17 03:40:00",340931,0.504,156.3,16.39,60.07,0,0,864.4347,0,2.077,3.069,365,13.89,12.55,0,0,50.06,57.74,33.31,35.16
"2018-05-17 03:50:00",340932,0.395,109.4,16.05,62.1,0,0,864.6221,0,2.29,3.069,362,13.89,12.54,0,0,50.06,57.8,33.31,35.17
"2018-05-17 04:00:00",340933,0.229,135.5,15.95,61.88,0,0,864.6453,0,2.242,3.069,366,13.93,12.53,0,0,50.06,57.74,33.31,35.16
"2018-05-17 04:10:00",340934,0.13,82.7,16.12,60.46,0,0,864.7864,0,1.989,3.071,345,13.93,12.52,0,0,50.06,57.74,33.31,35.16
"2018-05-17 04:20:00",340935,0.158,353.6,16.16,59.98,0,0,864.8791,0,2.1,3.069,370,13.85,12.52,0.07958036,0,50.06,57.68,33.31,35.14
"2018-05-17 04:30:00",340936,0.124,180.3,16.02,60.69,0,0,864.8707,0,0.897,3.083,280,13.8,12.53,0,0,50.11,57.68,33.33,35.14
"2018-05-17 04:40:00",340937,0.386,144,15.65,62.49,0,0,864.8328,0,0.931,3.085,288,13.79,12.54,0,0,50.11,57.74,33.33,35.16
"2018-05-17 04:50:00",340938,0.549,145.8,15.37,63.39,0.003930284,0,864.6412,0,1.539,3.08,337,13.78,12.54,0.0189477,0,50.06,57.68,33.31,35.14
"2018-05-17 05:00:00",340939,0.818,147.9,15.49,61.79,1.489577,0,864.6263,0,0.383,3.088,292,13.8,12.55,0.322111,0.182,50.06,57.68,33.31,35.14
"2018-05-17 05:10:00",340940,0.489,148.2,15.96,59.25,2.597917,0,864.8475,0,1.887,3.072,364,13.79,12.54,0.7010651,0.27,50.11,57.74,33.33,35.16
"2018-05-17 05:20:00",340941,0.338,158.9,16.04,58.64,3.411486,0,864.8834,0,0.984,3.081,299,13.73,12.54,0.5608521,0.167,50.11,57.74,33.33,35.16
"2018-05-17 05:30:00",340942,0.555,137.1,16.02,58.61,5.573142,0,864.8707,0,1.063,3.08,277,13.72,12.54,0.9398062,0.159,50.06,57.74,33.31,35.16
"2018-05-17 05:40:00",340943,0.493,139.4,15.99,59.27,23.25942,0,864.8602,0,1.855,3.073,311,13.75,12.55,3.709961,0.161,50.11,57.68,33.33,35.14
"2018-05-17 05:50:00",340944,0.379,156.3,16.08,58.46,26.56872,0,864.8791,0,1.689,3.073,297,13.76,12.54,4.20639,0.158,50.06,57.68,33.31,35.14
"2018-05-17 06:00:00",340945,0.517,124.6,16.09,58.94,17.84348,0,864.8749,0,1.032,3.081,222,13.79,12.54,2.429096,0.134,50.06,57.68,33.31,35.14
"2018-05-17 06:10:00",340946,0.471,124.5,15.88,60.75,34.77908,0,864.7949,0,1.158,3.08,221,13.71,12.56,5.240935,0.134,50.06,57.68,33.31,35.14
"2018-05-17 06:20:00",340947,0.25,137.6,16.04,61.17,55.25978,0,864.9191,0,1.213,3.079,247,13.63,12.55,8.632574,0.155,50.06,57.68,33.31,35.14
"2018-05-17 06:30:00",340948,0.405,133.7,16.07,62.19,54.23398,0,864.8749,0,0.952,3.082,237,13.63,12.55,8.367307,0.154,50.11,57.68,33.33,35.14
"2018-05-17 06:40:00",340949,0.289,103,15.99,63.13,27.25259,0,865.0497,0,0.415,3.087,217,13.63,12.56,3.588695,0.131,50.06,57.68,33.31,35.14
"2018-05-17 06:50:00",340950,0.186,129.9,15.92,64.04,29.36708,0,865.0856,0,0.43,3.088,219,13.64,12.58,3.975229,0.135,50.06,57.68,33.31,35.14
"2018-05-17 07:00:00",340951,0.527,108.6,15.74,64.52,39.50328,0,864.8876,0,0.992,3.083,233,13.68,12.58,5.672943,0.143,50.11,57.68,33.33,35.14
"2018-05-17 07:10:00",340952,0.33,142.5,15.79,64.3,44.95458,0,865.0413,0,1.103,3.081,218,13.64,12.56,6.76433,0.149,50.06,57.68,33.31,35.14
"2018-05-17 07:20:00",340953,0.392,102.6,15.83,65.56,48.81019,0,864.8791,0,1.103,3.081,213,13.63,12.57,7.249392,0.148,50.06,57.68,33.31,35.14
"2018-05-17 07:30:00",340954,0.286,82,15.95,66.8,70.63505,0,864.8812,0,1.213,3.079,222,13.62,12.56,11.05788,0.156,50.06,57.68,33.31,35.14
"2018-05-17 07:40:00",340955,0.179,132.4,16.13,65.48,52.41033,0,865.1087,0,0.809,3.082,206,13.58,12.57,7.495712,0.141,50.06,57.68,33.31,35.14
"2018-05-17 07:50:00",340956,0.445,143.8,15.92,67.42,104.915,0,864.8349,0,1.158,3.08,203,13.56,12.54,16.75356,0.155,50.06,57.68,33.31,35.14
"2018-05-17 08:00:00",340957,0.325,149.9,16.14,66.95,102.2817,0,864.7233,0,1.023,3.079,205,13.56,12.54,15.98428,0.156,50.06,57.68,33.31,35.14
"2018-05-17 08:10:00",340958,0.481,139.1,16.24,67.12,54.18682,0,864.8475,0,1.292,3.078,219,13.54,12.53,7.359289,0.134,50.06,57.62,33.31,35.13
"2018-05-17 08:20:00",340959,0.26,128.6,16.05,68.57,45.62273,0,864.8791,0,1.419,3.077,219,13.54,12.51,5.869999,0.128,50.06,57.62,33.31,35.13
"2018-05-17 08:30:00",340960,0.429,134.7,15.97,71.25,57.71228,0,864.8791,0,1.063,3.08,207,13.54,12.49,8.211935,0.141,50.06,57.62,33.31,35.13
"2018-05-17 08:40:00",340961,0.605,139.3,15.93,71.32,58.0778,0,864.8917,0,0.747,3.084,208,13.54,12.46,8.416571,0.142,50.06,57.62,33.31,35.13
"2018-05-17 08:50:00",340962,0.315,127.2,15.97,72.42,50.42947,0,864.9297,0,0.541,3.086,214,13.54,12.46,7.1016,0.14,50.06,57.62,33.31,35.13
"2018-05-17 09:00:00",340963,0.454,138.4,15.9,73.17,46.59351,0,864.9844,0,0.312,3.088,220,13.54,12.43,6.366429,0.136,50.06,57.62,33.31,35.13
"2018-05-17 09:10:00",340964,0.534,130.6,15.85,73.55,90.61661,0,865.0223,0,0.509,3.087,226,13.54,12.42,14.33962,0.154,50.06,57.62,33.31,35.13
"2018-05-17 09:20:00",340965,0.517,135.5,15.92,74.19,95.91856,0,864.8791,0,0.335,3.088,222,13.54,12.41,14.82469,0.152,50.06,57.62,33.31,35.13
"2018-05-17 09:30:00",340966,0.834,135,15.91,75.18,103.5158,0,864.877,0,0.129,3.09,211,13.54,12.42,16.32155,0.152,50.06,57.62,33.31,35.13
"2018-05-17 09:40:00",340967,0.675,142.1,15.97,75.93,99.71522,0,864.8791,0,-0.124,3.092,222,13.54,12.41,15.41964,0.153,50.01,57.62,33.3,35.13
"2018-05-17 09:50:00",340968,0.764,140.5,15.93,76.92,66.70084,0,864.8791,0,-0.638,3.097,220,13.54,12.41,9.716383,0.145,50.06,57.62,33.31,35.13
"2018-05-17 10:00:00",340969,0.667,143.4,16.06,77.4,144.5794,0,864.8644,0,-0.529,3.095,220,13.54,12.41,23.40042,0.161,50.01,57.62,33.3,35.13
"2018-05-17 10:10:00",340970,0.605,152,16.18,76.93,76.60122,0,864.9023,0,-0.837,3.098,216,13.54,12.41,11.06546,0.141,50.06,57.62,33.31,35.13
"2018-05-17 10:20:00",340971,0.859,134.3,16.11,78.16,59.74817,0,864.9318,0,-0.789,3.098,226,13.54,12.41,8.33699,0.139,50.06,57.56,33.31,35.12
"2018-05-17 10:30:00",340972,0.413,163.7,16.2,79.52,68.83498,0,864.9865,0,-1.629,3.105,204,13.54,12.41,10.14839,0.146,50.06,57.62,33.31,35.13
"2018-05-17 10:40:00",340973,0.585,145,16.32,80.1,137.5481,0,864.9023,0,-1.107,3.099,206,13.54,12.41,22.27492,0.16,50.06,57.56,33.31,35.12
"2018-05-17 10:50:00",340974,0.682,169,16.49,79.82,98.43788,0,864.8981,0,-0.862,3.095,217,13.56,12.41,15.07858,0.153,50.01,57.56,33.3,35.12
"2018-05-17 11:00:00",340975,0.553,135.7,16.6,79.84,92.54246,0,865.1129,0,-0.307,3.091,229,13.61,12.41,13.91898,0.15,50.06,57.56,33.31,35.12
"2018-05-17 11:10:00",340976,0.204,126.5,16.67,80.1,149.6848,0,865.1318,0,-0.19,3.088,231,13.6,12.4,24.38569,0.163,50.06,57.56,33.31,35.12
"2018-05-17 11:20:00",340977,0.242,128.4,16.96,79.19,155.0733,0,865.1318,0,0.516,3.08,252,13.57,12.41,25.6173,0.164,50.01,57.56,33.3,35.12
"2018-05-17 11:30:00",340978,0.62,119.2,17.01,79.15,247.2974,0,864.9908,0,0.001,3.085,212,13.6,12.41,41.16578,0.166,50.01,57.56,33.3,35.12
"2018-05-17 11:40:00",340979,0.337,155.1,17.13,79.65,225.4371,0,864.9002,0,0.707,3.077,225,13.63,12.41,37.05413,0.164,50.06,57.56,33.31,35.12
"2018-05-17 11:50:00",340980,0.472,137.4,17.11,80.3,232.3898,0,864.8791,0,0.706,3.077,216,13.63,12.41,38.21752,0.163,50.06,57.56,33.31,35.12
"2018-05-17 12:00:00",340981,0.322,128.6,17.42,79.17,226.3332,0,864.8686,0,0.818,3.075,216,13.63,12.41,36.17875,0.157,50.01,57.56,33.3,35.12
"2018-05-17 12:10:00",340982,0.459,56.17,17.55,79.2,185.3718,0,864.7843,0,0.207,3.08,221,13.61,12.41,29.14536,0.156,50.01,57.56,33.3,35.12
"2018-05-17 12:20:00",340983,0.243,29.74,17.7,78.47,250.0171,0,864.7191,0,0.596,3.076,221,13.62,12.41,40.15398,0.156,50.01,57.56,33.3,35.12
"2018-05-17 12:30:00",340984,0.258,30.13,17.59,79.11,220.1705,0,864.5379,0,0.469,3.077,240,13.69,12.41,34.54924,0.157,50.06,57.56,33.31,35.12
"2018-05-17 12:40:00",340985,0.447,59.09,18.11,77.42,367.6387,0,864.4241,0,0.169,3.076,221,13.7,12.41,60.63645,0.165,50.01,57.56,33.3,35.12
"2018-05-17 12:50:00",340986,0.359,138.2,18.62,74.7,250.2058,0,864.5737,0,0.423,3.074,250,13.66,12.41,38.60027,0.15,50.01,57.56,33.3,35.12
"2018-05-17 13:00:00",340987,0.491,112.3,18.27,75.46,240.9814,0,864.6263,0,0.884,3.07,237,13.63,12.41,37.2815,0.154,50.01,57.51,33.3,35.1
"2018-05-17 13:10:00",340988,0.471,127.4,18.48,75.09,374.1355,0,864.6263,0,-0.433,3.08,254,13.71,12.41,61.75057,0.164,50.01,57.51,33.3,35.1
"2018-05-17 13:20:00",340989,0.149,242.2,19.19,73.04,311.6007,0,864.5228,0,0.1,3.073,217,13.74,12.38,49.07456,0.157,50.01,57.51,33.3,35.1
"2018-05-17 13:30:00",340990,0.609,128.4,18.94,74.17,285.8377,0,864.4213,0,-0.044,3.076,219,13.72,12.4,44.99322,0.154,50.01,57.51,33.3,35.1
"2018-05-17 13:40:00",340991,0.633,209.9,18.94,74.14,378.1797,0,864.3624,0,0.093,3.074,212,13.79,12.4,62.12952,0.164,50.01,57.51,33.3,35.1
"2018-05-17 13:50:00",340992,0.351,216.7,19.07,74.01,269.7747,0,864.3632,0,-0.156,3.078,222,13.84,12.38,41.61674,0.149,50.01,57.51,33.3,35.1
"2018-05-17 14:00:00",340993,0.524,58.13,18.38,78.23,306.8136,0,864.3654,0,0.383,3.076,228,13.82,12.41,49.46109,0.156,50.01,57.51,33.3,35.1
"2018-05-17 14:10:00",340994,0.504,116.6,18.53,80.2,392.5292,0,864.3277,0,0.545,3.071,231,13.86,12.41,65.77885,0.167,50.01,57.51,33.3,35.1
"2018-05-17 14:20:00",340995,0.538,163.9,18.68,78.25,359.4126,0,864.3051,0,0.713,3.068,220,13.94,12.41,59.22295,0.165,49.95,57.51,33.28,35.1
"2018-05-17 14:30:00",340996,0.708,302.2,18.91,76.41,339.1638,0,864.2095,0,-0.354,3.079,218,13.89,12.41,56.35805,0.165,49.95,57.51,33.28,35.1
"2018-05-17 14:40:00",340997,0.698,346.4,19,76.01,344.7841,0,864.1239,0,0.426,3.071,216,14.02,12.41,56.32774,0.162,50.01,57.51,33.3,35.1
"2018-05-17 14:50:00",340998,0.627,141.7,19.16,76.03,357.699,0,864.1164,0,0.915,3.064,211,13.99,12.38,57.3547,0.161,49.95,57.51,33.28,35.1
"2018-05-17 15:00:00",340999,0.482,156.5,19.39,75.58,269.5585,0,864.0667,0,0.66,3.066,210,14.01,12.36,43.50393,0.16,49.95,57.51,33.28,35.1
"2018-05-17 15:10:00",341000,0.79,144.2,19.39,75.54,368.0082,0,864.017,0,0.142,3.071,204,14.08,12.36,55.19845,0.152,49.95,57.51,33.28,35.1
"2018-05-17 15:20:00",341001,0.556,139.5,19.33,75.54,229.8548,0,864.1239,0,0.872,3.066,205,14.03,12.35,36.89118,0.161,49.9,57.45,33.27,35.09
"2018-05-17 15:30:00",341002,0.512,305.6,19.1,76.01,164.0225,0,864.1311,0,-0.138,3.076,205,14.14,12.39,25.10192,0.152,49.95,57.45,33.28,35.09
"2018-05-17 15:40:00",341003,0.402,342.5,19.02,76.4,208.926,0,864.1199,0,0.379,3.071,202,14.18,12.41,34.0945,0.163,49.95,57.45,33.28,35.09
"2018-05-17 15:50:00",341004,0.316,159.4,19.09,77.04,151.1784,0,864.114,0,0.308,3.071,203,14.2,12.41,22.91915,0.151,49.95,57.45,33.28,35.09
"2018-05-17 16:00:00",341005,0.454,97.4,19.02,78.53,197.1116,0,864.118,0,0.252,3.072,201,14.31,12.41,31.46835,0.158,49.95,57.45,33.28,35.09
"2018-05-17 16:10:00",341006,0.585,339.2,19.07,79.52,183.9097,0,864.1631,0,0.219,3.073,203,14.24,12.41,29.27041,0.159,49.9,57.45,33.27,35.09
"2018-05-17 16:20:00",341007,0.68,243,18.95,80.3,185.6902,0,864.1407,0,-0.505,3.08,202,14.29,12.41,30.42243,0.163,49.9,57.45,33.27,35.09
"2018-05-17 16:30:00",341008,0.668,217.7,18.95,80.1,183.9923,0,864.1191,0,-0.345,3.078,204,14.37,12.41,29.47505,0.159,49.9,57.45,33.27,35.09
"2018-05-17 16:40:00",341009,0.585,149.8,19.02,79.89,159.5341,0,864.1373,0,-0.83,3.082,201,14.34,12.37,25.59077,0.16,49.9,57.45,33.27,35.09
"2018-05-17 16:50:00",341010,0.62,196.9,18.9,80.8,117.9006,0,864.1692,0,-0.434,3.08,200,14.33,12.37,17.18936,0.144,49.9,57.45,33.27,35.09
"2018-05-17 17:00:00",341011,0.565,236.8,18.86,80.9,89.9013,0,864.3631,0,0.727,3.069,210,14.41,12.37,12.32738,0.136,49.9,57.45,33.27,35.09
"2018-05-17 17:10:00",341012,0.439,234.6,18.74,81.4,82.3473,0,864.361,0,0.154,3.075,222,14.49,12.39,11.84989,0.143,49.9,57.39,33.27,35.07
"2018-05-17 17:20:00",341013,0.315,216.3,18.7,81.9,99.36936,0,864.3737,0,0.14,3.074,214,14.46,12.37,15.31354,0.154,49.84,57.39,33.26,35.07
"2018-05-17 17:30:00",341014,0.642,277,18.68,80.7,53.73484,0,864.3737,0,0.512,3.072,216,14.43,12.36,7.291077,0.134,49.9,57.39,33.27,35.07
"2018-05-17 17:40:00",341015,0.396,228.4,18.35,91.5,41.12255,0,864.3757,0,1.171,3.067,238,14.41,12.42,4.998405,0.122,49.84,57.39,33.26,35.07
"2018-05-17 17:50:00",341016,0.229,359.8,18.41,85.9,30.83307,0,864.5842,0,1.028,3.067,248,14.47,12.43,4.141968,0.135,49.84,57.39,33.26,35.07
"2018-05-17 18:00:00",341017,0.312,167.6,18.55,83.6,28.36486,0,864.5948,0,0.527,3.073,252,14.55,12.46,3.857753,0.136,49.84,57.39,33.26,35.07
"2018-05-17 18:10:00",341018,0.119,223.8,18.41,85,21.91526,0,864.6559,0,-1.77,3.095,189,14.58,12.48,3.130161,0.142,49.84,57.39,33.26,35.07
"2018-05-17 18:20:00",341019,0.224,223.6,18.41,85.9,14.18832,0,864.7043,0,-1.984,3.098,183,14.58,12.49,1.872033,0.132,49.84,57.39,33.26,35.07
"2018-05-17 18:30:00",341020,0.708,161.7,17.97,98.2,9.554519,0,864.6263,0,-2.365,3.104,196,14.58,12.5,1.163389,0.12,49.84,57.39,33.26,35.07
"2018-05-17 18:40:00",341021,0.357,173,17.77,100,4.960017,0,864.6348,0,-2.857,3.109,187,14.58,12.5,0.5267462,0.102,49.79,57.45,33.24,35.09
"2018-05-17 18:50:00",341022,0.503,159.4,17.69,100,1.564253,0,864.6327,0,-2.444,3.105,197,14.58,12.5,0.140213,0.05,49.84,57.39,33.26,35.07
"2018-05-17 19:00:00",341023,0.323,339.6,17.86,100,0.03930283,0,864.8391,0,-1.897,3.099,195,14.57,12.5,0.2046352,0.161,49.84,57.39,33.26,35.07
"2018-05-17 19:10:00",341024,0.488,52.26,17.91,99.6,0,0,864.6516,0,-2.548,3.106,189,14.56,12.5,0.05684311,0,49.79,57.33,33.24,35.06
"2018-05-17 19:20:00",341025,0.641,23.47,17.87,95.1,0.04323312,0,864.7486,0,-2.817,3.107,193,14.54,12.5,0.1932666,0.337,49.84,57.33,33.26,35.06
"2018-05-17 19:30:00",341026,0.385,318.9,17.84,93.8,0.2397473,0,864.877,0,-2.871,3.111,184,14.48,12.5,0.231162,0.493,49.84,57.33,33.26,35.06
"2018-05-17 19:40:00",341027,0.35,67.8,17.14,100,0,0,864.8791,0,-2.243,3.107,193,14.48,12.53,0,0,49.79,57.39,33.24,35.07
"2018-05-17 19:50:00",341028,0.271,342.9,17.65,96.8,0.3537255,0,864.8981,0,-2.984,3.11,194,14.5,12.58,0.5456939,0.983,49.79,57.33,33.24,35.06
"2018-05-17 20:00:00",341029,0.602,49.85,18.01,88.7,0.1414902,0,864.8959,0,-3.025,3.109,197,14.5,12.56,0.4357972,1.149,49.79,57.39,33.24,35.07
"2018-05-17 20:10:00",341030,0.565,53.22,18.12,87,0.1257691,0,864.8854,0,-3.025,3.109,197,14.5,12.52,0.3031633,0.803,49.79,57.39,33.24,35.07
"2018-05-17 20:20:00",341031,0.555,355.2,18.12,87.1,0,0,864.8791,0,-3.025,3.109,192,14.48,12.53,0.09094898,0,49.79,57.39,33.24,35.07
"2018-05-17 20:30:00",341032,0.461,11.09,18.05,88.4,0,0,865.0876,0,-3.438,3.113,194,14.43,12.57,0,0,49.79,57.39,33.24,35.07
"2018-05-17 20:40:00",341033,0.441,303,18.21,86,0.03144227,0,865.1129,0,-3.995,3.117,178,14.41,12.59,0.09852806,0.193,49.79,57.39,33.24,35.07
"2018-05-17 20:50:00",341034,0.297,327.3,18.05,89.5,0.01572113,0,865.1318,0,-4.067,3.124,187,14.41,12.59,0.09473852,0.064,49.79,57.39,33.24,35.07
"2018-05-17 21:00:00",341035,0.22,278.7,16.72,100,0,0,865.1087,0,-3.493,3.121,193,14.39,12.59,0,0,49.79,57.39,33.24,35.07
"2018-05-17 21:10:00",341036,0.067,177.3,16.72,100,0,0,865.1318,0,-3.439,3.12,197,14.41,12.59,0,0,49.79,57.39,33.24,35.07
"2018-05-17 21:20:00",341037,0.166,174.7,16.91,100,0.1650719,0,865.0076,0,-2.666,3.109,188,14.41,12.59,0.231162,0.316,49.79,57.33,33.24,35.06
"2018-05-17 21:30:00",341038,0.241,257.9,18.09,86.3,1.304854,0,865.0582,0,-3.033,3.107,194,14.41,12.59,1.23539,0.952,49.79,57.27,33.24,35.05
"2018-05-17 21:40:00",341039,0.43,207.5,18.35,83.1,0.4559129,0,865.0329,0,1.931,3.061,445,14.41,12.59,0.5949579,1.395,49.79,57.33,33.24,35.06
"2018-05-17 21:50:00",341040,0.279,202.3,18.23,84.5,0,0,865.0223,0,-1.618,3.094,274,14.39,12.62,0.09852806,0,49.79,57.33,33.24,35.06
"2018-05-17 22:00:00",341041,0.392,273.8,18.12,84.9,0,0,865.0624,0,-3.047,3.112,206,14.34,12.66,0,0,49.79,57.33,33.24,35.06
"2018-05-17 22:10:00",341042,0.06,337.9,17.22,99.3,0,0,865.056,0,-3.686,3.121,188,14.38,12.71,0,0,49.79,57.33,33.24,35.06
"2018-05-17 22:20:00",341043,0.005,136,16.94,100,0,0,864.9191,0,-4.002,3.125,196,14.33,12.71,0,0,49.79,57.33,33.24,35.06
"2018-05-17 22:30:00",341044,0,0,16.86,100,0,0,864.8791,0,-3.923,3.124,183,14.32,12.72,0,0,49.79,57.33,33.24,35.06
"2018-05-17 22:40:00",341045,0,0,16.83,100,0,0,864.8791,0,-3.582,3.12,196,14.32,12.74,0,0,49.79,57.33,33.24,35.06
"2018-05-17 22:50:00",341046,0.039,8.45,16.98,100,0,0,864.8749,0,-3.717,3.122,196,14.32,12.73,0.1591607,0,49.79,57.27,33.24,35.05
"2018-05-17 23:00:00",341047,0.016,5.763,16.51,100,0,0,864.6412,0,-3.5,3.122,195,14.32,12.73,0,0,49.73,57.33,33.23,35.06
"2018-05-17 23:10:00",341048,0,0,16.74,100,0,0,864.6221,0,-3.493,3.121,178,14.31,12.72,0.1098967,0,49.79,57.27,33.24,35.05
"2018-05-17 23:20:00",341049,0.203,176.6,16.56,100,0,0,864.4241,0,-3.572,3.122,186,14.28,12.7,0,0,49.73,57.27,33.23,35.05
"2018-05-17 23:30:00",341050,0.248,111.3,16.45,100,0,0,864.3737,0,-3.73,3.124,192,14.25,12.7,0.01515816,0,49.79,57.27,33.24,35.05
"2018-05-17 23:40:00",341051,0.188,200.2,16.53,100,0,0,864.3737,0,-3.736,3.125,187,14.24,12.73,0,0,49.79,57.27,33.24,35.05
"2018-05-17 23:50:00",341052,0.044,169.2,16.4,100,0,0,864.3568,0,-3.513,3.124,197,14.24,12.72,0,0,49.79,57.27,33.24,35.05
